Wetbulb
57.76 57.71 57.86 57.94 57.51 57.30 56.53 56.24 56.77 57.32 57.16 57.95 58.63 59.36 59.69 59.98 60.12 60.20 60.30 60.38 60.63 60.99 61.34 61.65 61.84 62.11 61.40 55.75 52.88 57.40 65.44 65.67 59.12 59.37 57.97 56.95 55.29 55.28 54.14 54.42 54.01 53.09 53.12 52.73 53.22 53.52 53.66
56.91 56.95 56.85 57.03 57.26 57.17 56.84 56.30 56.38 56.15 56.33 57.25 57.97 58.66 59.24 59.87 59.95 59.92 60.06 60.06 60.34 60.65 61.10 61.38 61.50 61.37 59.27 50.93 56.64 57.79 56.90 56.69 58.10 58.06 57.06 57.40 56.02 56.42 54.26 53.22 52.52 53.42 51.97 51.67 53.06 52.58 53.05
56.22 56.07 55.75 55.86 56.23 56.73 56.80 56.36 56.17 56.03 56.49 56.96 57.80 58.38 59.07 59.60 59.42 59.46 59.35 59.59 59.99 60.28 60.59 60.86 61.38 60.88 56.33 52.64 57.31 57.21 56.68 55.75 57.52 57.46 55.04 56.62 56.04 54.01 53.97 51.94 53.45 51.92 49.68 50.81 51.46 52.32 50.99
56.13 55.95 55.85 55.76 55.74 55.94 56.49 56.25 56.42 55.87 56.39 57.26 57.60 58.22 58.97 58.74 59.10 59.02 59.23 59.49 59.74 60.04 60.39 61.16 61.63 59.95 52.68 56.35 58.03 55.46 56.58 55.70 57.53 58.60 58.07 58.22 57.22 54.42 53.51 53.61 51.33 49.62 49.53 47.36 51.10 51.82 51.14
56.07 56.11 55.63 55.61 55.25 55.83 56.04 56.16 56.56 56.44 57.07 57.80 57.95 58.31 58.50 58.39 58.72 58.87 59.04 59.02 59.57 60.23 60.89 61.57 60.11 57.52 50.05 57.14 53.67 55.26 56.10 53.95 55.70 56.83 57.83 57.30 57.32 54.56 53.17 50.23 48.10 49.44 44.50 47.41 48.01 50.97 50.86
55.94 55.81 55.58 55.44 55.10 55.63 55.85 55.93 56.45 56.89 57.06 57.58 57.95 57.90 58.00 58.30 58.43 58.43 58.40 58.44 59.09 59.82 60.00 60.30 57.93 52.23 51.66 50.54 54.08 54.86 56.48 55.66 53.92 54.32 54.67 54.70 53.82 51.11 50.62 48.37 42.99 45.56 45.77 46.55 46.43 49.69 49.50
56.11 56.16 55.72 55.43 55.29 55.19 55.40 55.87 56.13 56.30 56.93 57.49 57.77 57.83 58.15 58.12 58.22 57.99 56.70 57.49 55.77 54.48 55.33 51.80 51.15 50.64 51.19 54.04 55.59 54.68 55.77 54.38 54.17 52.97 49.54 52.12 49.26 47.06 48.68 49.59 49.09 47.51 46.49 46.00 48.56 49.59 47.05
56.23 56.17 56.07 55.80 55.76 55.30 55.43 55.80 55.93 56.57 57.08 57.70 58.27 58.25 58.25 58.23 57.93 57.01 58.30 55.67 55.21 57.11 49.88 53.63 52.95 52.81 54.00 54.52 51.34 54.06 56.31 51.46 50.80 48.61 50.04 49.08 46.79 50.26 49.60 49.12 48.25 47.94 46.88 47.00 48.50 48.22 47.10
56.64 56.05 55.88 55.42 55.33 55.77 55.93 55.90 56.18 57.07 57.70 57.96 58.12 58.40 58.50 57.97 56.61 56.34 58.23 56.99 60.56 58.83 51.75 51.05 52.87 52.02 52.78 54.07 51.28 52.42 54.47 52.19 50.22 48.57 48.97 47.60 49.33 49.82 48.76 47.98 47.10 47.90 46.47 46.09 45.25 47.77 49.12
56.30 56.20 55.56 55.03 54.52 55.73 56.34 56.43 56.70 57.03 57.34 57.36 57.95 58.54 58.20 57.31 53.34 58.82 57.75 59.91 61.35 60.26 48.01 47.41 50.30 52.28 53.62 54.20 50.98 54.27 54.08 52.75 50.77 48.76 48.91 49.07 50.32 48.05 47.79 47.20 47.79 44.95 47.60 46.04 45.44 44.99 42.38
55.68 56.24 55.55 54.26 54.86 55.66 56.42 56.49 56.59 56.91 57.06 57.33 58.14 58.14 57.57 54.58 58.75 56.28 58.69 61.58 61.07 58.44 39.18 48.41 50.17 55.97 53.86 51.40 52.31 52.06 53.44 53.32 49.59 49.53 49.13 47.00 47.15 46.83 46.61 47.27 47.94 46.06 47.23 46.16 46.16 44.53 43.66
55.70 55.78 55.16 54.71 55.58 56.56 56.54 56.47 56.62 56.68 56.46 56.81 57.08 56.61 56.50 57.41 60.36 59.22 60.74 60.50 58.30 46.27 39.49 46.67 50.69 49.60 49.77 50.71 50.42 51.63 50.66 52.49 51.61 48.87 49.57 48.59 50.02 48.33 48.27 48.16 47.80 47.63 45.79 45.76 45.18 43.63 38.33
55.86 55.39 55.01 55.47 56.14 56.92 56.81 56.63 56.49 56.69 56.70 57.21 56.55 56.58 56.59 59.45 57.20 60.66 60.59 57.45 46.26 41.67 48.46 46.29 47.35 49.35 49.17 48.32 48.03 48.73 47.56 46.81 45.62 43.53 44.17 46.25 46.58 47.10 47.59 45.62 47.45 46.17 44.34 39.65 39.02 38.63 39.89
55.88 55.62 55.30 55.73 56.39 57.12 57.23 57.12 56.96 56.33 56.34 56.59 56.18 56.43 56.16 56.33 60.28 60.19 58.35 51.03 41.98 44.91 45.97 48.85 48.29 48.28 46.61 47.83 47.55 47.61 47.03 45.74 44.03 43.79 43.12 42.42 41.40 45.26 45.95 45.70 44.29 44.28 43.70 39.60 34.60 37.10 39.56
55.91 55.46 55.52 55.80 56.24 56.67 57.03 57.10 57.08 56.60 55.82 55.53 55.46 56.68 57.10 54.95 58.11 59.39 54.22 45.06 45.38 46.46 48.25 47.28 47.37 45.87 46.43 45.82 44.93 45.90 45.20 45.39 43.73 42.84 41.04 41.47 41.19 43.82 43.66 44.73 44.41 43.36 40.22 44.17 39.59 41.34 37.58
55.95 55.41 55.37 55.41 55.66 55.97 56.36 56.61 56.49 55.92 55.71 55.16 56.49 55.30 53.96 53.30 57.43 57.48 51.18 46.37 46.46 46.40 46.58 46.99 45.20 46.52 44.78 45.80 43.28 43.99 44.25 44.55 42.31 41.71 43.31 42.07 38.01 41.81 42.44 43.50 44.06 42.73 44.30 39.71 40.53 34.61 34.81
56.07 55.58 55.30 55.18 55.12 55.35 55.62 55.64 55.57 54.73 55.39 54.49 54.03 51.95 51.62 54.75 56.23 53.96 47.47 46.56 45.17 45.35 46.39 45.63 46.04 45.50 45.28 44.77 44.72 43.89 42.67 43.03 43.94 41.47 42.58 41.74 39.85 38.79 40.34 40.50 41.79 40.86 40.59 40.16 40.30 39.91 35.66
55.92 55.67 55.14 54.87 54.75 54.78 55.03 54.80 54.32 54.57 53.59 51.15 55.32 48.17 52.46 55.29 49.91 51.86 48.62 45.74 42.98 44.56 46.05 45.24 45.62 45.34 44.48 43.98 42.76 42.73 41.74 43.13 43.34 42.76 40.33 41.52 40.68 38.16 39.59 40.84 41.68 41.62 41.16 41.63 37.93 37.88 39.43
56.08 55.56 55.21 54.60 54.53 54.86 54.48 54.11 53.36 54.31 51.53 57.50 51.65 49.98 53.00 53.29 46.58 46.54 45.61 43.49 44.02 43.43 43.92 43.62 43.25 43.67 43.67 42.79 40.46 41.06 41.84 42.87 42.11 41.57 40.75 41.87 40.08 37.42 37.74 39.37 40.48 38.11 40.99 40.74 40.91 39.30 35.87
56.42 55.99 55.39 54.68 54.44 54.69 54.58 53.65 52.99 50.46 50.22 52.40 49.84 46.51 48.62 51.10 49.46 46.88 45.12 44.14 41.87 42.95 43.02 43.05 42.34 42.88 41.79 40.84 41.65 40.28 41.07 41.63 41.73 42.20 40.48 40.95 40.36 38.74 36.87 38.55 39.50 38.60 39.70 40.12 39.20 36.10 37.72
56.52 56.53 56.07 54.92 54.25 54.69 54.65 53.35 52.70 51.92 52.13 53.20 51.21 48.58 46.09 45.34 45.46 46.39 45.78 44.39 41.54 40.10 42.30 43.07 41.13 41.59 40.82 39.00 39.36 39.02 41.13 41.20 41.07 43.19 41.75 41.29 37.93 39.82 40.00 39.92 39.27 38.00 37.64 38.86 37.52 38.44 36.04
56.36 56.34 56.21 55.30 54.06 54.59 54.46 53.56 52.13 51.24 49.67 52.86 50.01 47.98 46.80 45.83 44.32 44.79 40.93 42.23 41.20 39.80 41.34 40.38 39.95 41.04 40.61 39.47 40.35 39.12 40.94 41.15 40.99 42.24 41.23 41.49 37.86 38.30 36.40 38.75 37.04 35.30 37.89 38.67 38.79 38.84 38.55
56.32 56.19 55.97 55.47 54.65 54.41 54.36 53.69 52.43 51.34 50.10 54.06 50.38 48.91 50.12 42.04 44.68 45.23 45.48 43.54 42.08 42.91 41.19 42.13 41.46 41.65 40.01 41.00 41.84 42.37 43.44 42.25 42.45 41.34 40.85 39.38 38.08 36.19 34.49 36.51 36.97 34.73 39.69 40.50 40.68 41.07 40.16
55.89 55.19 55.43 55.51 54.70 54.26 54.56 54.08 53.00 51.17 51.37 55.65 52.43 51.98 50.51 45.61 46.09 46.45 43.47 43.32 42.52 41.93 41.54 41.83 42.74 41.79 42.39 44.85 44.06 43.61 42.67 41.28 41.38 40.79 42.35 38.89 37.55 37.10 33.18 35.94 30.34 40.72 44.82 42.80 38.80 39.86 41.38
55.21 54.48 54.39 54.90 54.82 54.08 53.93 53.94 52.89 51.32 50.76 53.39 52.74 52.77 52.28 47.45 48.25 44.19 43.67 43.28 42.96 42.38 41.78 41.86 41.85 43.59 45.47 42.44 40.42 38.40 38.29 38.16 38.10 38.43 39.02 40.18 38.53 34.93 32.28 34.02 38.01 40.31 38.22 38.68 36.74 37.74 42.99
55.91 54.09 53.61 53.42 54.35 54.29 53.81 53.66 53.18 51.87 50.97 52.91 50.02 50.79 51.73 50.14 46.73 46.83 44.64 45.02 44.80 44.19 41.96 41.08 42.75 45.05 43.82 42.80 40.65 37.26 37.31 39.37 36.69 35.67 38.06 38.09 39.17 36.14 36.04 29.15 28.90 38.72 39.05 40.79 40.00 35.04 42.50
55.41 54.10 53.29 52.69 53.08 54.00 53.76 53.36 52.89 52.55 51.16 54.09 51.36 51.88 51.30 49.28 46.32 46.67 46.29 45.07 46.53 45.47 45.29 42.52 41.56 41.11 43.03 41.92 38.92 38.97 38.36 39.03 35.96 35.84 33.95 34.67 35.61 32.75 34.38 32.42 35.46 42.93 40.99 40.96 33.03 37.12 43.97
54.76 53.99 53.95 53.42 52.86 53.55 53.47 53.32 52.76 52.57 51.30 53.42 51.09 52.51 51.80 51.42 46.56 45.61 45.49 44.89 44.71 46.15 44.89 43.36 42.13 41.47 41.23 39.28 40.75 41.12 38.78 40.23 37.61 40.18 37.42 36.95 35.77 34.97 35.67 32.42 29.36 43.21 39.78 36.56 42.20 44.17 43.95
53.68 53.40 53.29 53.83 54.01 53.89 52.88 52.95 52.73 52.35 51.68 51.32 51.17 52.59 51.34 51.59 48.37 47.62 47.35 47.42 46.00 45.30 47.42 44.70 45.33 43.97 46.38 43.03 43.67 43.80 39.30 40.05 38.44 35.17 41.20 35.12 39.34 37.72 39.21 38.04 45.18 44.72 42.59 44.93 45.18 43.62 43.77
MSLP
1017.85 1017.68 1017.44 1017.22 1017.07 1017.00 1016.86 1016.83 1016.86 1016.87 1016.87 1016.94 1016.92 1016.94 1016.90 1016.85 1016.74 1016.67 1016.59 1016.51 1016.41 1016.30 1016.18 1015.94 1015.75 1015.52 1014.90 1013.32 1012.17 1012.29 1012.52 1012.13 1011.66 1011.34 1010.79 1010.28 1009.52 1009.33 1008.93 1009.10 1009.33 1009.19 1010.31 1011.02 1011.64 1011.85 1012.11
1017.88 1017.72 1017.50 1017.24 1017.07 1016.99 1016.88 1016.78 1016.73 1016.74 1016.79 1016.93 1016.94 1016.89 1016.81 1016.75 1016.68 1016.53 1016.50 1016.42 1016.34 1016.24 1016.08 1015.81 1015.64 1015.48 1014.56 1012.49 1012.40 1012.25 1012.30 1012.12 1011.71 1011.25 1011.00 1010.45 1010.15 1010.05 1009.52 1009.64 1009.69 1010.12 1010.60 1011.21 1011.76 1012.15 1012.63
1017.70 1017.57 1017.40 1017.20 1017.04 1016.93 1016.80 1016.72 1016.74 1016.77 1016.82 1016.84 1016.82 1016.76 1016.70 1016.68 1016.51 1016.45 1016.38 1016.39 1016.28 1016.20 1015.94 1015.67 1015.49 1014.79 1013.01 1012.58 1012.33 1012.25 1012.25 1012.17 1011.96 1011.71 1011.38 1011.23 1010.97 1010.51 1010.16 1010.09 1010.54 1010.42 1010.50 1011.14 1011.60 1012.10 1012.64
1017.60 1017.39 1017.26 1017.03 1016.82 1016.82 1016.70 1016.60 1016.57 1016.63 1016.63 1016.64 1016.60 1016.62 1016.58 1016.49 1016.48 1016.35 1016.35 1016.27 1016.14 1016.01 1015.68 1015.49 1015.26 1014.11 1012.34 1012.54 1012.32 1012.32 1012.10 1011.96 1011.99 1011.73 1011.82 1011.73 1011.37 1010.94 1010.47 1010.73 1010.47 1010.13 1010.11 1010.04 1010.95 1011.81 1012.85
1017.41 1017.25 1017.11 1016.98 1016.73 1016.59 1016.54 1016.46 1016.39 1016.44 1016.46 1016.46 1016.47 1016.46 1016.45 1016.33 1016.32 1016.30 1016.32 1016.08 1015.93 1015.62 1015.42 1015.19 1014.61 1013.34 1012.24 1012.78 1012.30 1012.38 1012.17 1011.91 1012.09 1012.10 1012.07 1011.99 1011.64 1010.92 1010.99 1010.22 1009.59 1009.46 1008.87 1009.06 1010.77 1011.63 1011.92
1017.27 1017.05 1016.90 1016.81 1016.67 1016.54 1016.32 1016.27 1016.22 1016.21 1016.32 1016.30 1016.30 1016.31 1016.29 1016.25 1016.20 1016.34 1016.14 1015.95 1015.68 1015.34 1014.88 1014.13 1013.41 1012.75 1012.54 1012.12 1012.44 1012.47 1012.32 1012.37 1012.04 1012.01 1011.94 1011.75 1011.20 1010.62 1010.23 1009.74 1008.78 1008.42 1008.50 1008.89 1009.92 1011.16 1011.92
1017.11 1016.86 1016.62 1016.47 1016.44 1016.31 1016.21 1016.12 1016.14 1016.11 1016.10 1016.13 1016.13 1016.18 1016.15 1016.16 1016.33 1016.15 1015.85 1015.33 1015.21 1014.30 1013.32 1012.79 1012.20 1012.14 1012.15 1012.38 1012.75 1012.26 1012.42 1012.21 1011.97 1011.71 1011.03 1011.19 1010.77 1009.81 1009.14 1009.65 1009.84 1009.63 1009.47 1009.45 1009.79 1011.26 1012.16
1017.04 1016.66 1016.39 1016.18 1016.00 1015.98 1015.97 1015.96 1015.96 1015.96 1015.91 1015.95 1015.98 1015.95 1016.06 1016.21 1016.13 1016.04 1015.57 1013.49 1013.30 1013.21 1013.01 1012.93 1012.64 1012.34 1012.37 1012.34 1012.13 1012.26 1012.38 1012.09 1011.67 1011.04 1011.13 1011.10 1010.31 1010.44 1010.77 1010.80 1010.63 1010.29 1009.93 1009.77 1010.22 1011.62 1012.17
1017.04 1016.64 1016.27 1016.03 1015.79 1015.60 1015.55 1015.60 1015.67 1015.67 1015.64 1015.59 1015.63 1015.80 1015.96 1016.06 1016.03 1015.68 1014.05 1013.52 1013.37 1012.97 1011.94 1012.81 1012.58 1012.17 1012.46 1012.49 1012.26 1012.50 1012.51 1012.09 1011.57 1011.09 1010.89 1010.63 1011.03 1011.35 1011.35 1011.30 1011.09 1010.75 1010.64 1010.49 1010.95 1011.62 1011.56
1016.94 1016.60 1016.22 1015.90 1015.70 1015.50 1015.33 1015.28 1015.30 1015.34 1015.37 1015.45 1015.60 1015.73 1015.81 1015.84 1016.15 1013.99 1013.57 1013.65 1013.51 1013.34 1011.78 1012.57 1012.34 1012.40 1012.54 1012.52 1012.76 1013.38 1013.37 1013.06 1012.03 1011.41 1011.44 1011.02 1011.59 1011.86 1011.84 1011.54 1011.61 1011.22 1011.70 1011.98 1011.93 1011.81 1010.69
1016.86 1016.53 1016.21 1015.92 1015.63 1015.44 1015.34 1015.27 1015.20 1015.31 1015.45 1015.43 1015.44 1015.62 1015.76 1016.13 1014.21 1013.61 1013.86 1013.71 1013.46 1013.07 1011.14 1012.36 1012.32 1012.64 1012.51 1012.49 1013.00 1013.40 1013.78 1013.07 1012.31 1011.71 1012.25 1011.65 1011.94 1012.24 1012.18 1012.01 1012.45 1012.23 1012.81 1012.64 1012.43 1011.90 1011.10
1016.91 1016.57 1016.20 1015.89 1015.67 1015.45 1015.27 1015.22 1015.22 1015.20 1015.31 1015.43 1015.55 1015.63 1015.67 1015.21 1014.14 1013.96 1013.84 1013.72 1013.25 1012.25 1011.06 1012.09 1012.19 1012.30 1012.39 1012.64 1012.92 1013.29 1013.36 1013.45 1013.44 1012.82 1012.41 1012.18 1012.96 1012.91 1012.69 1013.22 1013.39 1013.51 1013.17 1012.72 1012.46 1011.75 1010.46
1017.01 1016.63 1016.29 1015.93 1015.64 1015.47 1015.30 1015.19 1015.24 1015.29 1015.34 1015.41 1015.54 1015.58 1015.66 1014.21 1013.64 1014.08 1013.86 1013.09 1011.94 1010.88 1011.81 1011.96 1011.99 1012.31 1012.18 1012.29 1012.83 1013.16 1013.17 1013.10 1013.11 1012.67 1012.03 1012.46 1012.67 1013.40 1013.72 1013.51 1013.72 1013.65 1012.96 1011.56 1011.22 1010.71 1009.01
1017.14 1016.75 1016.39 1016.08 1015.75 1015.47 1015.27 1015.18 1015.18 1015.23 1015.31 1015.42 1015.45 1015.43 1015.08 1014.64 1014.34 1014.17 1013.44 1012.35 1011.13 1011.19 1011.30 1012.28 1012.28 1012.42 1012.22 1012.55 1012.87 1013.14 1013.14 1013.19 1014.00 1013.85 1012.92 1012.11 1012.64 1013.49 1014.08 1013.72 1013.44 1013.20 1012.95 1011.72 1010.44 1009.21 1008.61
1017.35 1016.87 1016.50 1016.18 1015.91 1015.63 1015.44 1015.31 1015.24 1015.26 1015.37 1015.49 1015.71 1014.80 1014.02 1014.54 1014.56 1014.09 1012.79 1011.49 1011.22 1011.73 1012.34 1012.39 1012.64 1012.24 1012.15 1012.88 1013.19 1013.20 1013.34 1013.48 1014.61 1014.93 1014.25 1012.98 1013.08 1014.43 1014.67 1014.72 1014.69 1013.74 1013.39 1013.09 1011.74 1009.97 1009.59
1017.61 1017.10 1016.64 1016.26 1015.97 1015.77 1015.56 1015.39 1015.36 1015.34 1015.28 1015.30 1014.53 1013.90 1014.11 1014.49 1014.32 1013.54 1012.35 1011.54 1012.40 1013.51 1013.66 1013.42 1012.43 1012.45 1011.86 1012.50 1013.23 1013.33 1013.50 1015.14 1015.65 1016.25 1016.01 1014.67 1014.14 1014.45 1015.10 1015.34 1015.14 1014.60 1014.30 1013.33 1012.37 1010.43 1008.70
1017.64 1017.31 1016.93 1016.46 1016.06 1015.76 1015.55 1015.36 1015.27 1015.27 1015.38 1015.45 1014.36 1013.33 1014.21 1014.27 1013.90 1012.70 1011.91 1012.70 1013.76 1014.65 1014.76 1014.29 1013.34 1013.05 1012.88 1013.00 1013.41 1013.57 1014.32 1016.20 1016.72 1016.86 1016.76 1015.97 1015.19 1015.12 1015.32 1014.77 1013.95 1014.85 1014.06 1013.85 1013.19 1011.73 1010.09
1017.91 1017.53 1017.07 1016.73 1016.32 1015.84 1015.54 1015.31 1015.20 1015.23 1015.34 1015.54 1013.93 1012.99 1014.11 1014.05 1012.99 1012.37 1012.18 1013.87 1015.19 1015.04 1015.24 1015.02 1014.74 1014.19 1013.78 1013.96 1013.98 1014.45 1015.16 1016.58 1017.81 1017.72 1017.01 1016.90 1015.96 1014.45 1014.06 1014.94 1015.26 1014.82 1014.07 1013.58 1012.92 1011.97 1011.35
1018.11 1017.78 1017.39 1017.05 1016.54 1016.08 1015.63 1015.28 1015.18 1015.16 1015.20 1014.42 1013.21 1013.31 1014.05 1013.83 1012.10 1012.12 1013.77 1014.57 1015.12 1015.41 1015.47 1015.44 1015.16 1015.18 1014.98 1014.63 1014.91 1015.43 1016.39 1018.16 1018.59 1018.40 1018.08 1017.64 1016.03 1014.68 1014.42 1015.33 1015.53 1015.00 1014.27 1014.32 1013.89 1013.97 1012.31
1018.40 1017.95 1017.56 1017.18 1016.83 1016.34 1015.84 1015.48 1015.28 1015.29 1015.37 1015.32 1013.49 1012.75 1013.32 1013.23 1013.01 1012.37 1013.00 1013.91 1015.09 1016.03 1015.92 1015.90 1015.69 1015.73 1015.44 1015.31 1015.71 1015.93 1016.82 1018.38 1019.02 1018.99 1019.31 1018.70 1016.81 1015.50 1014.65 1014.68 1015.33 1014.70 1014.58 1014.73 1014.44 1013.59 1011.73
1018.71 1018.34 1017.81 1017.39 1016.96 1016.51 1016.13 1015.79 1015.53 1015.40 1015.35 1015.20 1013.70 1013.10 1013.72 1012.54 1012.61 1012.70 1013.07 1013.79 1014.57 1015.51 1016.10 1016.19 1015.99 1015.90 1015.63 1015.50 1015.88 1016.13 1016.99 1018.27 1019.08 1019.45 1019.33 1018.73 1017.11 1015.97 1015.45 1015.23 1015.30 1015.05 1014.69 1014.36 1014.04 1013.06 1012.47
1019.09 1018.68 1018.26 1017.85 1017.39 1016.87 1016.44 1016.05 1015.82 1015.50 1015.37 1014.78 1013.50 1013.36 1013.96 1013.37 1013.19 1012.95 1013.88 1013.80 1014.33 1015.39 1015.69 1015.99 1016.10 1016.20 1016.44 1016.27 1016.54 1016.57 1017.09 1017.64 1017.89 1019.24 1019.12 1019.00 1017.92 1017.25 1016.01 1015.56 1015.94 1015.22 1014.42 1013.85 1013.41 1013.09 1012.44
1019.25 1019.03 1018.66 1018.34 1017.96 1017.40 1016.84 1016.39 1016.01 1015.69 1015.56 1014.07 1014.65 1014.42 1013.71 1013.72 1013.21 1013.10 1013.36 1014.06 1014.71 1015.39 1016.61 1016.70 1016.70 1016.76 1017.16 1017.60 1017.81 1017.89 1017.89 1018.14 1018.31 1018.50 1018.87 1019.00 1018.59 1018.04 1016.42 1016.30 1015.77 1014.50 1013.00 1012.82 1012.72 1012.87 1012.79
1019.23 1019.17 1019.00 1018.71 1018.34 1017.95 1017.44 1016.88 1016.36 1015.92 1015.36 1014.42 1014.92 1014.39 1013.49 1013.19 1013.43 1013.49 1014.23 1014.75 1015.27 1015.96 1016.30 1017.25 1017.46 1017.59 1018.81 1018.91 1018.70 1018.44 1018.37 1018.56 1018.66 1019.19 1019.37 1019.00 1019.08 1018.78 1017.62 1016.80 1015.03 1013.24 1013.05 1013.23 1013.74 1013.37 1013.09
1019.15 1019.13 1019.10 1019.03 1018.78 1018.40 1017.97 1017.50 1016.96 1016.40 1015.85 1015.29 1015.85 1015.17 1013.90 1013.36 1013.66 1014.41 1014.79 1015.25 1015.99 1016.67 1017.12 1017.69 1018.61 1019.14 1019.24 1019.04 1018.30 1017.80 1017.92 1018.26 1018.62 1019.46 1019.67 1019.73 1019.35 1018.83 1018.23 1016.62 1014.71 1013.42 1014.37 1014.32 1014.21 1013.28 1012.66
1018.94 1019.04 1019.11 1019.08 1019.04 1018.78 1018.40 1018.05 1017.61 1017.10 1016.69 1016.26 1016.95 1016.87 1015.28 1014.11 1014.27 1014.48 1015.10 1015.52 1015.52 1016.04 1017.38 1018.45 1019.43 1019.62 1019.45 1018.63 1018.10 1017.65 1016.66 1016.59 1017.77 1019.05 1019.97 1020.02 1019.77 1019.34 1017.90 1017.61 1015.59 1014.24 1014.97 1015.21 1015.11 1013.53 1013.14
1018.82 1018.86 1018.89 1019.04 1019.08 1019.00 1018.77 1018.40 1018.11 1017.67 1017.17 1016.60 1017.24 1017.37 1016.32 1015.09 1015.77 1015.64 1015.59 1015.82 1016.09 1016.29 1016.48 1017.97 1018.87 1019.37 1019.48 1018.12 1017.63 1017.29 1016.51 1017.05 1017.02 1017.33 1018.65 1019.12 1019.01 1018.56 1017.82 1017.17 1015.56 1014.20 1015.12 1015.63 1015.07 1014.22 1013.79
1018.60 1018.87 1018.88 1018.76 1019.00 1019.07 1019.05 1018.81 1018.47 1018.08 1017.67 1016.88 1017.79 1017.70 1016.97 1015.83 1016.71 1016.94 1016.98 1017.03 1017.20 1016.91 1016.59 1018.03 1018.53 1018.72 1018.70 1017.94 1017.17 1016.82 1016.99 1016.72 1016.93 1016.47 1017.04 1017.37 1017.51 1017.23 1016.91 1016.43 1015.33 1014.76 1015.53 1015.30 1014.39 1014.26 1014.42
1018.52 1018.87 1019.09 1018.92 1018.90 1019.10 1019.21 1019.16 1018.94 1018.59 1018.06 1017.73 1017.52 1017.84 1017.93 1016.88 1017.69 1018.20 1018.42 1018.70 1018.66 1018.47 1017.73 1018.10 1017.56 1017.41 1017.15 1017.20 1017.17 1017.11 1017.34 1017.35 1017.16 1016.40 1016.77 1016.66 1016.25 1016.10 1015.60 1014.88 1014.29 1014.89 1014.90 1014.67 1014.61 1014.58 1014.63
Wind_Speed
8 7 8 7 4 4 3 4 3 5 2 2 2 4 5 6 6 7 7 7 8 9 11 11 11 10 6 6 4 4 7 5 4 3 4 3 4 2 4 2 1 1 5 4 5 5 6
7 7 8 8 7 5 4 3 4 3 3 4 5 6 6 7 7 6 7 7 9 10 10 11 11 10 6 5 2 3 5 3 6 3 4 2 4 4 2 1 4 4 3 6 7 6 8
7 7 6 6 6 7 5 4 5 6 8 9 8 7 7 7 6 6 6 9 10 10 10 11 10 7 9 5 2 4 1 3 5 3 2 5 4 6 1 3 2 3 6 7 7 8 3
7 7 6 6 6 4 6 5 6 7 8 8 8 8 7 5 6 5 8 10 9 10 10 11 7 8 3 3 2 0 1 3 3 5 4 3 3 2 4 3 5 7 6 11 8 8 6
8 8 7 6 6 5 5 6 7 8 8 9 9 8 7 5 5 7 10 10 11 10 9 9 7 8 5 4 3 3 3 2 1 1 2 2 4 1 4 6 7 9 10 8 9 6 3
8 8 7 6 6 6 5 5 6 7 8 8 8 7 6 4 5 10 10 8 4 8 7 6 6 6 4 4 3 1 2 1 2 2 3 5 5 7 6 7 9 10 6 6 8 9 9
8 9 8 7 6 5 5 5 6 6 7 8 7 7 5 4 9 9 8 5 7 6 7 6 5 5 7 6 5 2 1 3 4 6 7 3 7 9 5 2 8 8 9 11 5 5 6
9 10 10 8 7 5 4 5 5 7 7 8 7 5 4 8 9 7 7 7 8 6 7 3 3 6 3 1 4 4 3 5 5 8 3 6 11 5 2 2 5 7 10 10 1 1 6
9 9 9 7 7 6 5 5 5 6 6 5 5 6 8 8 6 4 6 3 5 5 4 4 2 4 3 4 1 4 6 1 5 6 7 10 6 2 4 5 7 9 9 10 8 2 13
9 8 7 6 4 5 5 5 5 5 5 6 7 8 8 5 1 4 3 1 4 4 7 7 5 4 4 1 3 3 5 4 4 7 3 6 6 6 7 8 5 10 5 3 5 7 7
9 9 6 4 4 3 3 4 4 5 6 7 7 8 8 12 4 4 4 3 4 5 7 4 5 3 2 3 4 4 2 4 7 3 5 4 3 5 8 3 1 4 1 5 8 11 11
11 9 7 4 3 3 1 2 3 4 4 6 8 8 7 6 6 3 3 3 5 7 1 5 4 5 7 3 3 2 2 2 2 4 7 4 0 3 4 1 3 2 6 8 7 7 7
11 11 8 6 5 4 1 2 2 4 6 6 7 5 4 3 3 2 4 5 7 7 2 6 4 5 6 4 5 2 2 4 5 6 11 5 8 3 3 6 5 6 7 4 7 6 3
12 12 10 8 7 6 4 3 3 4 5 6 8 8 2 3 3 4 6 6 6 5 2 2 3 4 6 3 3 2 4 8 2 5 7 7 7 7 3 4 7 4 6 7 7 7 6
12 13 12 11 9 8 6 4 3 5 5 7 6 5 3 4 4 4 7 8 7 4 3 4 4 6 7 5 4 4 3 3 4 3 6 5 4 5 3 2 4 6 5 5 7 8 6
13 14 14 13 11 9 7 4 3 3 7 10 3 3 3 5 4 6 6 2 2 3 1 2 6 3 3 5 5 4 4 4 2 2 4 5 5 2 5 3 3 7 5 5 5 6 8
13 14 15 15 14 11 8 5 2 3 6 4 6 4 4 3 5 6 6 5 4 2 3 3 3 2 3 1 6 2 3 3 0 1 3 4 4 6 3 8 2 5 5 5 5 5 7
12 14 16 16 15 14 10 5 1 4 5 2 2 3 3 3 6 2 3 3 1 3 2 1 3 3 3 1 3 3 1 4 2 2 2 4 6 6 1 4 2 4 6 7 5 5 7
12 13 14 16 17 15 13 8 2 6 7 2 2 3 2 4 5 6 4 3 1 4 2 2 3 2 1 2 3 2 1 2 1 1 3 2 4 5 6 4 4 5 7 9 7 3 11
12 13 15 16 16 16 15 11 4 3 2 4 3 4 4 4 2 6 5 5 5 1 2 2 1 3 3 5 2 2 4 3 2 1 2 3 5 8 9 7 4 5 6 8 12 8 15
11 13 15 16 17 17 17 15 8 2 3 4 2 2 4 3 4 2 2 4 6 4 2 3 3 6 3 3 4 3 1 4 4 5 3 4 7 7 11 11 10 14 16 15 18 22 19
9 12 14 16 17 17 18 17 15 7 5 4 2 3 3 2 4 5 3 4 4 4 4 4 3 3 3 2 4 1 2 3 1 5 3 2 3 7 10 2 6 13 18 20 21 21 24
8 11 13 15 17 18 18 18 16 14 4 1 2 1 5 3 4 4 3 4 4 5 3 4 1 2 3 4 4 3 3 2 2 2 6 4 4 4 5 2 10 14 8 10 11 11 11
7 9 11 13 16 17 18 19 17 16 13 3 3 2 4 4 4 1 4 2 6 2 3 4 0 2 4 3 2 2 1 1 3 2 5 4 5 3 6 9 6 4 9 7 8 13 13
4 6 8 11 13 15 17 19 19 17 16 4 3 4 2 2 1 5 7 5 7 5 4 5 4 4 4 2 4 4 5 4 3 1 5 5 5 4 4 6 15 13 6 4 4 11 14
4 5 5 6 9 12 13 15 17 16 13 4 6 3 3 2 4 4 8 7 4 4 6 4 4 3 2 3 3 3 4 4 4 5 2 5 7 6 4 4 5 5 4 1 2 10 6
5 7 5 4 6 9 11 13 15 15 13 4 5 6 3 1 3 3 2 4 2 2 2 5 5 5 3 3 4 4 5 1 5 4 6 4 6 11 10 8 9 11 7 2 5 8 10
8 7 5 6 5 6 9 11 12 14 12 4 4 7 5 2 4 1 1 2 2 4 4 7 5 5 4 5 3 4 3 2 3 5 3 7 5 6 5 5 8 7 7 5 12 14 16
10 8 5 7 8 6 6 8 11 13 14 7 3 3 3 3 5 4 5 5 5 7 2 7 5 2 3 5 2 2 3 3 4 5 4 6 9 5 5 6 6 3 14 16 15 16 15
Wind_Direction
344 349 344 342 352 300 280 240 220 218 111 283 259 251 253 261 265 264 270 277 284 287 292 300 305 314 288 213 62 38 330 297 283 301 351 316 265 278 244 114 202 297 118 95 108 113 89
330 330 323 330 334 316 281 252 289 262 257 257 272 268 267 269 267 277 279 288 285 288 294 299 301 309 241 216 15 3 348 345 23 10 8 351 7 327 83 28 302 96 102 133 148 133 131
332 329 320 311 312 308 292 246 233 237 232 242 256 261 268 263 277 278 296 291 288 291 294 295 298 282 245 77 350 348 343 44 16 5 62 34 352 274 241 152 153 161 164 160 178 169 152
334 330 329 319 309 294 286 261 235 234 232 241 246 247 260 272 282 301 300 285 285 283 289 284 289 259 55 80 8 72 256 59 39 47 52 12 350 107 303 119 196 232 244 218 149 189 147
339 335 334 326 311 301 280 254 241 232 239 237 238 243 254 272 297 313 283 281 273 276 263 272 249 245 117 139 177 56 13 20 65 126 50 335 265 257 181 229 226 201 269 215 163 204 178
339 333 336 330 314 300 283 261 252 243 242 241 237 244 255 279 318 279 273 266 287 275 224 220 264 238 169 133 99 28 77 289 253 191 208 226 224 231 226 229 256 319 247 249 265 167 222
339 333 329 323 312 302 279 273 258 247 251 249 243 240 260 300 270 268 268 200 192 167 211 357 69 75 128 103 194 103 13 220 227 233 239 178 253 225 271 293 309 291 279 272 278 102 283
342 336 334 328 317 302 282 272 261 251 245 240 239 243 263 257 257 263 265 266 24 4 124 77 108 100 83 346 170 110 286 246 218 243 215 217 240 54 345 243 257 260 266 265 134 212 255
348 347 330 325 314 314 299 279 267 262 258 258 254 239 233 236 244 234 261 4 335 319 192 117 72 113 109 255 54 50 316 301 269 242 237 273 45 124 212 210 243 240 273 299 287 285 244
357 356 347 327 313 311 304 285 277 273 260 242 233 227 223 213 263 149 202 37 301 311 212 135 170 115 166 207 158 358 16 320 227 292 272 281 92 223 233 253 264 272 59 290 286 289 292
10 4 3 347 330 318 301 261 238 237 227 223 205 206 218 221 34 214 53 273 285 239 223 121 130 58 147 248 104 109 353 238 288 284 249 65 199 218 243 294 272 31 3 284 285 274 288
17 18 17 27 13 353 309 231 216 200 202 202 190 191 196 205 232 40 291 270 245 231 115 131 135 173 191 187 131 111 205 171 343 259 236 309 89 268 344 84 294 47 261 242 270 259 247
25 28 31 33 29 32 63 132 163 179 171 165 168 178 227 296 65 340 260 223 216 263 161 140 155 194 226 167 175 255 225 209 272 249 206 177 205 133 255 240 193 235 260 235 209 201 314
29 34 38 35 32 34 64 96 126 132 164 168 172 189 144 26 334 290 224 225 258 50 80 87 165 192 221 158 175 207 229 224 164 264 286 256 201 190 114 277 343 215 297 303 303 327 343
26 33 38 41 38 39 47 72 120 141 162 187 191 196 173 41 322 261 243 221 4 38 44 172 173 225 185 199 280 231 241 336 34 341 272 295 157 123 39 325 294 131 225 11 294 255 257
25 31 34 38 37 37 43 59 92 165 174 179 227 197 101 331 292 244 248 273 60 45 333 275 254 250 266 159 225 209 170 63 116 359 332 35 264 188 116 251 200 273 360 240 199 275 285
20 26 31 32 32 29 28 41 73 140 191 194 246 222 81 295 256 228 248 57 101 68 329 291 310 258 273 242 262 235 54 104 287 117 294 315 255 122 200 201 250 172 213 230 302 277 297
29 25 25 27 30 24 22 23 84 167 176 262 277 218 52 270 216 269 241 35 347 146 168 222 292 303 279 187 236 249 311 35 41 322 276 40 314 275 20 97 358 303 284 281 265 277 244
36 31 30 27 23 26 24 24 47 196 199 280 261 81 129 256 224 190 127 128 133 171 189 204 192 283 212 222 236 253 173 99 134 254 343 43 205 281 173 180 176 242 224 244 289 268 255
32 33 30 28 23 25 30 34 62 110 258 273 246 182 147 216 300 305 177 176 157 146 161 223 133 215 195 201 209 169 179 155 178 240 17 295 275 267 285 353 328 247 233 233 236 258 266
32 28 31 29 25 24 26 34 40 45 334 270 249 91 356 169 182 185 198 153 155 161 234 220 182 248 244 218 203 216 164 157 186 150 216 272 272 296 289 292 280 272 272 264 235 249 264
34 35 30 28 26 24 25 27 28 15 337 240 265 197 181 97 159 179 148 176 192 134 183 168 259 143 211 294 1 28 196 239 338 166 238 145 288 325 289 297 288 278 272 262 259 265 268
39 32 31 30 26 24 23 24 24 16 330 232 112 114 287 145 188 230 98 120 144 146 98 27 43 177 202 57 359 26 11 12 337 257 212 242 282 310 275 183 301 275 271 279 259 257 271
57 38 30 30 30 27 24 24 26 15 356 3 37 277 252 139 238 77 137 127 145 100 116 110 115 273 84 132 129 191 161 270 222 157 305 237 251 266 276 300 248 32 323 291 300 287 288
96 61 43 33 30 29 28 27 26 22 0 70 42 297 287 148 123 149 157 127 129 132 89 114 66 49 147 225 252 231 188 203 175 241 235 245 250 265 263 260 294 286 52 23 357 305 291
152 115 71 49 35 32 33 29 27 24 8 71 51 320 303 274 188 103 157 182 172 168 151 111 123 137 211 255 241 253 263 353 163 176 203 217 254 251 214 264 271 35 151 187 270 287 76
153 151 135 101 61 42 37 37 28 23 12 29 60 13 282 80 106 165 178 188 146 172 73 135 161 176 235 214 232 235 246 27 239 232 171 189 218 231 246 247 267 274 138 172 271 341 348
151 143 125 135 108 66 42 38 32 22 15 1 69 18 336 20 103 357 66 145 148 242 210 114 165 187 188 230 248 219 254 165 275 280 196 204 212 217 231 238 268 107 127 248 344 330 326
151 144 133 105 84 83 65 44 34 21 12 322 81 30 332 340 60 42 63 37 11 7 316 178 351 155 209 242 205 304 222 201 275 272 162 245 235 295 231 226 314 198 266 288 295 304 315